User: anonymous   Login
Location: Proctor
(47.8934°N, 114.3048°W)
Time: 23:08:35
(UTC+00:00)
Language:

Explorer 11/Cluster Stage 4 - Orbit

View from above orbital plane
View from above orbital plane
View from above satellite
View from above satellite

Ground track
Ground track

The orbit data is extracted from the following two-line orbital elements,

1 00107U 61013A   24177.16255211  .00002311  00000-0  27621-3 0  9991
2 00107  28.7893 141.7690 0520797 253.9346 100.3291 14.15403461173823
Epoch (UTC): 25 June 2024 03:54:04
Eccentricity: 0.0520797
inclination: 28.7893°
perigee height: 465 km
apogee height: 1217 km
right ascension of ascending node: 141.7690°
argument of perigee: 253.9346°
revolutions per day: 14.15403461
mean anomaly at epoch: 100.3291°
orbit number at epoch: 17382

The dashed part of the orbit path shows where the satellite is in the earth's shadow,  

DLR